Location: Marcé
(47.5801°N, 0.3280°W)
Time: 23:39:38
(UTC+01:00)

Transit 2A - Pass Details

Date: 06 December 2021
Orbit: 591 x 967 km, 66.7° (Epoch: 16 January)

Event Time Altitude Azimuth Distance (km) Brightness Sun altitude
Rises 07:10:13 0° 325° (NW) 3,640 - -13.5°
Exits shadow 07:12:17 - 333° (NNW) 3,004 8.6 -13.2°
Reaches altitude 10° 07:13:18 10° 338° (NNW) 2,710 8.5 -13.1°
Maximum altitude 07:18:29 25° 32° (NNE) 1,843 8.1 -12.2°
Drops below altitude 10° 07:23:35 10° 87° (E) 2,673 9.9 -11.4°
Sets 07:26:35 0° 100° (E) 3,580 11.4 -11.0°
